Submittal Forms
Current Contests
Recent Contests

Club Activity Tracker - South East Contest Club (from club selection on form)

Recent postings for the selected club or group are listed below. Other than the call used, all calls listed are only those associated with the club or group. Click on a call to see the details of the posting.
Status Key: new=new posting, update=update prior posting, move=change club/group, delete=delete prior posting.

Sort by   for past

TimestampCallContestClassPowerScoreStatus
2021-05-09 17:36:55K2SXCQ-MSOABCWHP41,810new6412
2021-05-09 16:51:09NN4SSCQ-MSOABCWHP3,976new6412
2021-05-09 12:37:45NG2JCQ-MSOABCWLP4,698new6412
2021-05-09 11:51:27AA5JF/4(AA5JF)Volta RTTYSOABHP2,636,760new6411
2021-05-09 01:30:09KR4AEArQPSOCWQRP3,200new6413
2021-05-07 21:20:50K8LBQKRC SSTSingle OpLP525new6410
2021-05-07 21:14:42K4BAIKRC SSTSingle OpHP1,400new6410
2021-05-07 21:05:55KR4AEKRC SSTSingle OpQRP117new6410
2021-05-07 15:44:21N3ZLNCCC SprintSingle OpLP437new6409
2021-05-07 03:12:44K4BAINCCC SprintSingle OpLP374new6409
 
2021-05-06 04:25:20N3ZLCWopsTSingle OpLP3,721new6404
2021-05-06 04:09:59K4BAICWopsTSingle OpHP18,496new6404
2021-05-06 04:02:36NN4KCWopsTSingle OpHP2,704new6404
2021-05-06 04:02:24K1AJCWopsTSingle OpLP7,743new6404
2021-05-06 04:02:23N4ARYCWopsTSingle OpLP990new6404
2021-05-06 03:36:08K2SXCWopsTSingle OpHP4,485new6404
2021-05-06 03:19:21AD8JCWopsTSingle OpLP900new6404
2021-05-06 02:56:10K2SXCWopsTSingle OpHP676new6403
2021-05-06 00:54:24N3ZLCWopsTSingle OpLP3,481update6403
2021-05-05 21:12:30AA5JFCWopsTSingle OpHP1,936new6403
 
2021-05-05 20:25:22W8FNCWopsTSingle OpHP8,280new6403
2021-05-05 20:05:58KB3FWCWopsTSingle OpLP100new6403
2021-05-05 20:04:19WU4BCWopsTSingle OpLP2,116new6403
2021-05-05 20:02:19K1AJCWopsTSingle OpLP1,024new6403
2021-05-05 19:46:42AD8JCWopsTSingle OpLP5,550new6403
2021-05-05 19:45:25NS4TCWopsTSingle OpLP3,599new6403
2021-05-05 15:55:04W8FNCWopsTSingle OpHP18,769new6402
2021-05-05 14:16:27K8LBQCWopsTSingle OpLP1,156new6402
2021-05-05 14:08:46N3ZLCWopsTSingle OpLP5,476new6402
2021-05-05 14:08:10K4BAICWopsTSingle OpHP22,801new6402
 
2021-05-05 14:05:31NN4KCWopsTSingle OpHP3,844new6402
2021-05-05 14:03:07K1AJCWopsTSingle OpLP8,836new6402
2021-05-05 14:02:08AD8JCWopsTSingle OpLP17,956new6402
2021-05-05 13:50:36K2SXCWopsTSingle OpHP6,142new6402
2021-05-03 19:50:46KB4KBSNewEngQPSingle OpLP81new6397
2021-05-03 19:48:57KB4KBSDeQPSingle OpLP40new6396
2021-05-03 19:47:25KB4KBS7QPSO(A)MixedLP4,992new6394
2021-05-03 14:58:43N3ZLKRC SSTSingle OpLP1,551new6398
2021-05-03 14:52:19KB3FW7QPSOCWLP400new6394
2021-05-03 14:47:39KB3FWNewEngQPSingle OpLP640new6397
 
2021-05-03 08:46:47WZ4MNewEngQPSingle OpLP10,496new6397
2021-05-03 08:46:01WZ4MInQPSingle OpLP510new6395
2021-05-03 08:44:23WZ4M7QPSOCWLP1,872new6394
2021-05-03 03:10:26K2SXNewEngQPSingle OpHP30,720new6397
2021-05-03 03:05:36K2SX7QPSO(A)CWHP24,360new6394
2021-05-03 03:03:12K2SXInQPSingle OpHP1,160new6395
2021-05-03 03:01:42K2SXDeQPSingle OpHP280new6396
2021-05-03 01:59:49N4GGNewEngQPSingle OpHP12,986new6397
2021-05-03 01:39:14K4BAINewEngQPSingle OpHP20,968new6397
2021-05-03 01:34:02K4BAIInQPSingle OpHP918new6395
 
2021-05-03 01:30:09K4BAIDeQPSingle OpHP1,200new6396
2021-05-03 01:25:33K4BAI7QPSOMixedHP56,936new6394
2021-05-03 01:07:27NJ8JARISO CWLP560new6393
2021-05-03 01:05:02KI4MZCKRC SSTSingle OpQRP25new6398
2021-05-03 00:49:42NJ8JInQPSingle OpLP260new6395
2021-05-03 00:46:15NJ8JNewEngQPSingle OpLP4,740new6397
2021-05-03 00:42:32NJ8JDeQPSingle OpLP400new6396
2021-05-03 00:36:21NJ8J7QPSOCWLP2,574new6394
2021-05-03 00:22:41AA5JFInQPSingle OpHP119new6395
2021-05-03 00:21:54AA5JFDeQPSingle OpHP700new6396
 
2021-05-03 00:20:49AA5JFNewEngQPSingle OpHP28,336new6397
2021-05-03 00:16:02AA5JF7QPSO(A)MixedHP75,990new6394
2021-05-03 00:12:24KU8ENewEngQPSingle OpHP22,542new6397
2021-05-02 19:15:39KU8EARISO MixedHP16,023new6393
2021-05-02 17:17:17KU8EInQPSingle OpHP2,312update6395
2021-05-02 17:16:41KU8E7QPSOMixedHP53,508update6394
2021-05-02 13:18:51K3GWKDeQPSingle OpLP410new6396
2021-05-02 13:14:14K3GWKNewEngQPSingle OpLP1,014new6397
2021-05-02 13:08:53K4BAIARISO MixedHP3,048new6393
2021-05-02 13:06:46K3GWK7QPSO(A)SSBLP2,220new6394
 
2021-05-02 12:45:30NN4SS7QPSOCWHP5,460new6394
2021-05-02 12:39:28NN4SSARISO CWHP15,179new6393
2021-05-02 12:20:41K3GWKInQPSingle OpLP1,008new6395
2021-04-30 22:15:17AA5JFKRC SSTSingle OpHP225new6391
2021-04-30 21:52:19K8LBQKRC SSTSingle OpLP204new6391
2021-04-30 21:11:03K4BAIKRC SSTSingle OpHP2,646new6391
2021-04-30 21:07:49KR4AEKRC SSTSingle OpQRP104new6391
2021-04-30 20:51:14W4UKBARTG 75Single OpHP900new6374
2021-04-30 03:39:31N3ZLNCCC SprintSingle OpLP238new6390
2021-04-30 03:08:04K4BAINCCC SprintSingle OpLP1,160new6390
 
2021-04-29 04:09:44K4BAICWopsTSingle OpHP16,900new6386
2021-04-29 04:07:04N3ZLCWopsTSingle OpLP4,225new6386
2021-04-29 04:06:26NN4KCWopsTSingle OpHP4,160new6386
2021-04-29 04:04:44K1AJCWopsTSingle OpLP6,557new6386
2021-04-29 04:01:52K2SXCWopsTSingle OpHP12,305new6386
2021-04-29 03:21:30AD8JCWopsTSingle OpLP529new6386
2021-04-28 20:23:35K4HRCWopsTSingle OpHP4,970new6385
2021-04-28 20:14:55W8FNCWopsTSingle OpHP10,609new6385
2021-04-28 20:04:50NN4KCWopsTSingle OpHP1,444new6385
2021-04-28 20:03:48N3ZLCWopsTSingle OpLP49new6385
 
2021-04-28 20:01:28WU4BCWopsTSingle OpLP1,764new6385
2021-04-28 19:36:29AA5JFCWopsTSingle OpHP992new6385
2021-04-28 19:33:56K2SXCWopsTSingle OpHP1,764new6385
2021-04-28 17:48:46K3GWKFlQPSOABSSBLP510update6375
2021-04-28 15:00:40K4HRCWopsTSingle OpHP4,485new6384
2021-04-28 14:49:30K8LBQCWopsTSingle OpLP841new6384
2021-04-28 14:16:03W8FNCWopsTSingle OpHP21,025new6384
2021-04-28 14:13:24N3ZLCWopsTSingle OpLP5,040new6384
2021-04-28 14:03:05K1AJCWopsTSingle OpLP6,561new6384
2021-04-28 14:02:07AE4YCWopsTSingle OpLP2,209new6384
 
2021-04-28 14:01:52AD8JCWopsTSingle OpLP7,917new6384
2021-04-28 13:32:52K2SXCWopsTSingle OpHP1,978new6384
2021-04-28 13:29:24AA5JFCWopsTSingle OpHP1,089new6384
2021-04-28 02:40:55NJ8JFlQPSOABCWLP1,140new6375
2021-04-27 17:44:21KI4MZCFlQPSOABCWQRP252new6375
2021-04-26 19:42:46KB3FWFlQPSOABCWLP540new6375
2021-04-26 13:25:00W8FNKRC SSTSingle OpHP2,511new6380
2021-04-26 04:06:10N4GGFlQPSOAB(A)CWLP23,600update6375
2021-04-26 02:45:13W4AN/MFlQPMulti-Op MobileCWLP672,060new6375
 (W4AN,K4BAI,KU8E)
2021-04-26 01:48:31NG2JFlQPSOAB(A)CWLP3,312new6375
 
2021-04-26 01:31:13KR4AEKRC SSTSingle OpQRP440new6380
2021-04-25 23:21:03AA5JFFlQPSOABCWHP2,800new6375
2021-04-25 22:48:37W8FNFlQPSOABCWHP6,720new6375
2021-04-25 22:23:46KT4QFlQPSOAB(A)MixedHP30,492new6375
2021-04-25 22:13:56AD8JFlQPSOAB(A)CWLP26,460new6375
2021-04-25 21:50:20K2SXFlQPSOAB(A)CWHP18,576new6375
2021-04-25 21:34:56KR4AEFlQPSOABCWQRP2,496new6375
2021-04-25 21:03:11WU4BFlQPSOABCWLP2,808new6375
2021-04-25 18:24:53NJ8JCWopsTSingle OpLP196new6364
2021-04-25 14:18:37NS4TFlQPSOAB(A)CWLP200new6375
 
2021-04-24 11:17:57KB3FWKRC SSTSingle OpLP25new6371
2021-04-24 00:18:36K4BAIKRC SSTSingle OpLP520new6371
2021-04-23 21:39:35K8LBQKRC SSTSingle OpLP273new6371
2021-04-23 21:05:17KR4AEKRC SSTSingle OpQRP128new6371
2021-04-23 20:24:10NS4TKRC SSTSingle OpLP100new6371
2021-04-22 15:58:24KU8ECWopsTSingle OpHP20,385update6366
2021-04-22 04:09:38K4BAICWopsTSingle OpHP17,568new6366
2021-04-22 04:04:54NN4KCWopsTSingle OpHP4,356new6366
2021-04-22 04:02:18K2SXCWopsTSingle OpHP12,772new6366
2021-04-22 04:01:58K1AJCWopsTSingle OpLP6,561new6366
 
2021-04-22 03:16:13AD8JCWopsTSingle OpLP484new6366
2021-04-21 20:19:30W8FNCWopsTSingle OpHP13,806new6365
2021-04-21 20:02:38K4HRCWopsTSingle OpHP3,780new6365
2021-04-21 20:01:24WU4BCWopsTSingle OpLP1,225new6365
2021-04-21 19:43:44AD8JCWopsTSingle OpLP4,624new6365
2021-04-21 19:33:05K2SXCWopsTSingle OpHP2,116new6365
2021-04-21 18:20:02K8LBQCWopsTSingle OpLP840update6364
2021-04-21 14:32:02K4HRCWopsTSingle OpHP4,352new6364
2021-04-21 14:15:40K4BAICWopsTSingle OpHP27,225new6364
2021-04-21 14:11:09W8FNCWopsTSingle OpHP18,496new6364
 
2021-04-21 14:04:13KB3FWCWopsTSingle OpLP100new6364
2021-04-21 14:02:51K1AJCWopsTSingle OpLP7,744new6364
2021-04-21 14:02:35NN4KCWopsTSingle OpHP2,704new6364
2021-04-21 14:01:39AD8JCWopsTSingle OpLP12,198new6364
2021-04-21 13:46:42NG2JCWopsTSingle OpLP1,089new6364
2021-04-21 13:33:27K2SXCWopsTSingle OpHP5,476new6364
2021-04-20 14:30:28K3GWKOnQPSO SSBLP1new5642
2021-04-20 00:26:19NG2JCQMM DXSOABLP6,111new6356
2021-04-19 12:59:11N3ZLCQMM DXSOABLP4,520new6356
2021-04-19 12:54:33N3ZLKRC SSTSingle OpLP925new6358
 
2021-04-19 08:32:35NJ8JOnQPSO CWLP2,156new5642
2021-04-19 08:13:19NJ8JMiQPSingle OpLP546new6357
2021-04-19 07:58:47NJ8JYU DXSO CWLP10new6355
2021-04-19 07:33:40NJ8JCQMM DXSOABLP5,817new6356
2021-04-19 03:42:05KU8EOnQPSO MixedHP7,298new5642
2021-04-19 03:27:59KU8ECQMM DXSOABHP161,701new6356
2021-04-19 02:54:35K4BAIOnQPSO MixedHP11,336new5642
2021-04-19 02:38:14K4BAIMiQPSingle OpHP4,995new6357
2021-04-19 02:21:28K4BAIHolyland DXSO MixedHP45new6352
2021-04-19 02:05:48K4BAICQMM DXSOABHP249,750new6356
 
2021-04-19 01:49:17K8LBQCQMM DXSOABLP7,450new6356
2021-04-19 01:49:09K4BAIYU DXSO CWHP484new6355
2021-04-19 01:21:01K4BAIKRC SSTSingle OpHP3,080new6358
2021-04-19 01:20:02W8FNKRC SSTSingle OpHP3,081new6358
2021-04-19 01:05:56KR4AEKRC SSTSingle OpQRP748new6358
2021-04-18 22:07:07NN4SSCQMM DXSOABHP56,560new6356
2021-04-18 14:29:20W8FNMiQPSingle OpHP2,550new6357
2021-04-18 04:20:29KU8EMiQPSingle OpHP5,586new6357
2021-04-18 04:11:44AA5JFPACCdigiSOABHP234update6359
2021-04-18 02:11:36AD8JMiQPSingle OpLP4,096new6357
 
2021-04-16 21:37:05KB3FWKRC SSTSingle OpLP120new6351
2021-04-16 21:22:56K4BAIKRC SSTSingle OpHP3,358new6351
2021-04-16 21:19:40K8LBQKRC SSTSingle OpLP546new6351
2021-04-16 21:04:30KR4AEKRC SSTSingle OpQRP170new6351
2021-04-16 15:58:09W4AN/M(K4BAI,KU8E)GaQPRover M/SLP245,514update6336
2021-04-16 03:13:54K4BAINCCC SprintSingle OpLP1,189new6350
2021-04-15 04:31:12N3ZLCWopsTSingle OpLP3,721new6347
2021-04-15 04:09:25K4BAICWopsTSingle OpHP23,200new6347
2021-04-15 04:04:55NN4KCWopsTSingle OpHP3,249new6347
2021-04-15 03:52:22K2SXCWopsTSingle OpHP3,127new6347
 
2021-04-15 03:14:01AD8JCWopsTSingle OpLP900new6347
2021-04-14 21:18:40N3ZLCWopsTSingle OpLP324new6346
2021-04-14 21:00:15K2SXCWopsTSingle OpHP4,225new6346
2021-04-14 20:34:25W8FNCWopsTSingle OpHP4,970new6346
2021-04-14 20:15:14K8LBQCWopsTSingle OpLP812new6346
2021-04-14 20:14:55K4HRCWopsTSingle OpHP4,096new6345
2021-04-14 20:07:19K4HRCWopsTSingle OpHP576new6346
2021-04-14 20:07:03NN4KCWopsTSingle OpHP289new6346
2021-04-14 20:01:32WU4BCWopsTSingle OpLP900new6346
2021-04-14 19:54:30AD8JCWopsTSingle OpLP4,422new6346
 
2021-04-14 14:54:01N3ZLCWopsTSingle OpLP1,681new6345
2021-04-14 14:18:56W8FNCWopsTSingle OpHP15,876new6345
2021-04-14 14:09:07K4BAICWopsTSingle OpHP23,409new6345
2021-04-14 14:06:42NJ8JCWopsTSingle OpLP1,260new6345
2021-04-14 14:03:55NN4KCWopsTSingle OpHP2,401new6345
2021-04-14 14:02:30K2SXCWopsTSingle OpHP15,222new6345
2021-04-14 14:01:22AD8JCWopsTSingle OpLP12,198new6345
2021-04-14 13:18:02AA5JFCWopsTSingle OpHP169new6345
2021-04-13 23:45:38NN4KNDQPOut of StateHP1new6337
2021-04-13 21:06:14N3ZLGaQPSingle OpCWLP2,739new6336
 
2021-04-13 17:32:26KR4AEGaQPSingle OpCWQRP13,600new6336
2021-04-13 14:19:39K4BAIOK/OM DX SSBSOSB/20HP10new6332
2021-04-12 17:36:00N4DUGaQPSingle OpCWHP15,280new6336
2021-04-12 14:01:07K4BAINMQPSingle OpHP198new6335
2021-04-12 13:49:29W3PJNeQPFixedHP54new6334
2021-04-12 13:46:39K4BAINeQPFixedHP80new6334
2021-04-12 13:05:20K4F(W4DD)GaQPSingle OpMixedLP45,199new6336
2021-04-12 10:34:00K3GWKGaQPSingle OpSSBLP3,990new6336
2021-04-12 10:15:13K3GWKNMQPSingle OpLP60new6335
2021-04-12 09:24:32NJ8JNDQPFixedLP56new6337
 
2021-04-12 09:03:11NJ8JNMQPSingle OpLP320new6335
2021-04-12 08:31:53NJ8JNeQPFixedLP20new6334
2021-04-12 02:20:57AA4LRGaQPSingle OpMixedLP112,115new6336
2021-04-12 02:14:11K2SXGaQPSingle OpCWHP13,920new6336
2021-04-12 01:26:12W8FNKRC SSTSingle OpHP2,400new6339
2021-04-12 01:07:06NJ8JGaQPSingle OpMixedLP41,232move6336
2021-04-12 01:05:18KI4MZCKRC SSTSingle OpQRP442new6339
2021-04-12 00:20:22KT4ZBGaQPSingle OpSSBHP24,388new6336
2021-04-12 00:12:23KM4DAYGaQPM/SHP240,204new6336
 (LZ4AX,@KM4DAY)
2021-04-12 00:03:58AD8JGaQPSingle OpCWLP360new6336
 
2021-04-12 00:03:38NG2JGaQPSingle OpCWLP15,680new6336
2021-04-11 23:21:34W8FNGaQPSingle OpCWHP4,880new6336
2021-04-11 21:47:31K8LBQGaQPSingle OpCWLP17,544new6336
2021-04-11 19:52:15W4UKIG-RY RTTYSingle OpHP45,299new6340
2021-04-11 07:47:09KB3FWKRC SSTSingle OpLP35new6330
2021-04-09 21:07:22K4BAIKRC SSTSingle OpHP1,440new6330
2021-04-09 15:53:13KU8ENCCC SprintSingle OpLP1,254update6329
2021-04-09 03:11:52K4BAINCCC SprintSingle OpLP1,140new